N694PB KMSY-KDAL

Flight info

Callsign N694PB
Flight time 1h 45m
Altitude 28000
Route PEBBY J58 AEX
Aircraft TBM9/L-SDFGRWY/L

Departure

Time 2026-05-05 15:29
Airport Louis Armstrong New Orleans International Airport (KMSY)

Arrival

Time 2026-05-05 17:15
Airport Dallas Love Field (KDAL)
Time Latitude Longitude Altitude Speed Heading
2026-05-05 15:18 29.99654 -90.26419 6 ft 0 kts 14°
2026-05-05 15:25 29.99661 -90.26417 6 ft 4 kts
2026-05-05 15:25 29.99686 -90.26469 6 ft 13 kts 270°
2026-05-05 15:26 29.99622 -90.26559 6 ft 20 kts 193°
2026-05-05 15:26 29.99528 -90.26677 5 ft 27 kts 288°
2026-05-05 15:26 29.99587 -90.26915 6 ft 35 kts 288°
2026-05-05 15:26 29.99660 -90.27217 0 ft 43 kts 285°
2026-05-05 15:27 29.99740 -90.27542 -1 ft 26 kts 288°
2026-05-05 15:27 29.99727 -90.27645 -2 ft 12 kts 230°
2026-05-05 15:27 29.99640 -90.27691 -5 ft 16 kts 194°
2026-05-05 15:27 29.99544 -90.27669 -5 ft 17 kts 115°
2026-05-05 15:28 29.99470 -90.27370 -2 ft 63 kts 101°
2026-05-05 15:28 29.99319 -90.26713 30 ft 104 kts 113°
2026-05-05 15:28 29.99073 -90.25793 89 ft 139 kts 109°
2026-05-05 15:28 29.98892 -90.24594 287 ft 162 kts 98°
2026-05-05 15:29 29.99266 -90.23292 590 ft 186 kts 57°
2026-05-05 15:29 30.00348 -90.22480 1012 ft 190 kts 12°
2026-05-05 15:29 30.01618 -90.22689 1505 ft 187 kts 328°
2026-05-05 15:29 30.02480 -90.23765 1855 ft 182 kts 290°
2026-05-05 15:30 30.02963 -90.25107 2305 ft 180 kts 283°
2026-05-05 15:30 30.03098 -90.26514 2751 ft 176 kts 266°
2026-05-05 15:30 30.03068 -90.27937 3212 ft 179 kts 265°
2026-05-05 15:30 30.03048 -90.29375 3637 ft 179 kts 265°
2026-05-05 15:31 30.03015 -90.30806 4095 ft 178 kts 265°
2026-05-05 15:31 30.02971 -90.32235 4557 ft 178 kts 267°
2026-05-05 15:31 30.03152 -90.33651 5017 ft 180 kts 282°
2026-05-05 15:31 30.03661 -90.34966 5411 ft 185 kts 296°
2026-05-05 15:32 30.04381 -90.36209 5811 ft 187 kts 300°
2026-05-05 15:32 30.05128 -90.37441 6219 ft 188 kts 300°
2026-05-05 15:32 30.05864 -90.38687 6607 ft 188 kts 299°
2026-05-05 15:32 30.06602 -90.39941 6984 ft 189 kts 300°
2026-05-05 15:33 30.07339 -90.41193 7370 ft 189 kts 300°
2026-05-05 15:33 30.08076 -90.42445 7757 ft 189 kts 300°
2026-05-05 15:33 30.08812 -90.43699 8148 ft 189 kts 301°
2026-05-05 15:33 30.09548 -90.44953 8549 ft 189 kts 301°
2026-05-05 15:34 30.10287 -90.46208 8932 ft 189 kts 301°
2026-05-05 15:34 30.11027 -90.47467 9323 ft 189 kts 301°
2026-05-05 15:34 30.11764 -90.48725 9724 ft 189 kts 301°
2026-05-05 15:34 30.12503 -90.49983 10104 ft 189 kts 301°
2026-05-05 15:35 30.13240 -90.51239 10469 ft 189 kts 301°
2026-05-05 15:35 30.13974 -90.52490 10852 ft 188 kts 301°
2026-05-05 15:35 30.14706 -90.53740 11218 ft 188 kts 301°
2026-05-05 15:35 30.15438 -90.54990 11577 ft 188 kts 301°
2026-05-05 15:36 30.16172 -90.56242 11951 ft 188 kts 301°
2026-05-05 15:36 30.16905 -90.57493 12309 ft 188 kts 301°
2026-05-05 15:36 30.17639 -90.58746 12673 ft 188 kts 301°
2026-05-05 15:36 30.18372 -90.59998 13036 ft 188 kts 301°
2026-05-05 15:37 30.19104 -90.61251 13394 ft 188 kts 301°
2026-05-05 15:37 30.19838 -90.62503 13763 ft 188 kts 301°
2026-05-05 15:37 30.20571 -90.63758 14095 ft 188 kts 301°
2026-05-05 15:37 30.21304 -90.65011 14422 ft 188 kts 301°
2026-05-05 15:38 30.22036 -90.66264 14741 ft 188 kts 301°
2026-05-05 15:38 30.22768 -90.67517 15063 ft 188 kts 301°
2026-05-05 15:38 30.23500 -90.68770 15377 ft 188 kts 301°
2026-05-05 15:38 30.24231 -90.70021 15702 ft 188 kts 301°
2026-05-05 15:39 30.24962 -90.71273 16025 ft 188 kts 302°
2026-05-05 15:39 30.25693 -90.72526 16347 ft 188 kts 302°
2026-05-05 15:39 30.26423 -90.73778 16673 ft 188 kts 302°
2026-05-05 15:39 30.27155 -90.75033 16992 ft 188 kts 302°
2026-05-05 15:40 30.27886 -90.76287 17314 ft 188 kts 302°
2026-05-05 15:40 30.28616 -90.77540 17640 ft 187 kts 301°
2026-05-05 15:40 30.29336 -90.78776 17959 ft 188 kts 301°
2026-05-05 15:40 30.30065 -90.80027 18280 ft 188 kts 302°
2026-05-05 15:41 30.30795 -90.81280 18561 ft 187 kts 301°
2026-05-05 15:41 30.31522 -90.82530 18846 ft 187 kts 301°
2026-05-05 15:41 30.32248 -90.83777 19120 ft 187 kts 302°
2026-05-05 15:41 30.32974 -90.85025 19399 ft 187 kts 302°
2026-05-05 15:42 30.33699 -90.86271 19677 ft 186 kts 302°
2026-05-05 15:42 30.34419 -90.87511 19958 ft 186 kts 302°
2026-05-05 15:42 30.35140 -90.88752 20231 ft 186 kts 302°
2026-05-05 15:42 30.35860 -90.89991 20493 ft 185 kts 302°
2026-05-05 15:43 30.36580 -90.91230 20777 ft 185 kts 302°
2026-05-05 15:43 30.37298 -90.92467 21050 ft 185 kts 302°
2026-05-05 15:43 30.38015 -90.93701 21324 ft 185 kts 302°
2026-05-05 15:43 30.38731 -90.94935 21605 ft 184 kts 302°
2026-05-05 15:44 30.39445 -90.96167 21875 ft 184 kts 302°
2026-05-05 15:44 30.40162 -90.97403 22139 ft 185 kts 302°
2026-05-05 15:44 30.40879 -90.98642 22402 ft 185 kts 302°
2026-05-05 15:44 30.41597 -90.99880 22671 ft 185 kts 302°
2026-05-05 15:45 30.42315 -91.01118 22941 ft 185 kts 302°
2026-05-05 15:45 30.43032 -91.02355 23209 ft 185 kts 302°
2026-05-05 15:45 30.43748 -91.03593 23481 ft 185 kts 302°
2026-05-05 15:45 30.44464 -91.04830 23706 ft 185 kts 302°
2026-05-05 15:46 30.45182 -91.06071 23912 ft 186 kts 302°
2026-05-05 15:46 30.45902 -91.07315 24113 ft 186 kts 302°
2026-05-05 15:46 30.46625 -91.08565 24317 ft 187 kts 302°
2026-05-05 15:46 30.47350 -91.09819 24519 ft 188 kts 302°
2026-05-05 15:47 30.48078 -91.11079 24720 ft 188 kts 302°
2026-05-05 15:47 30.48561 -91.11915 24856 ft 189 kts 302°
2026-05-05 15:47 30.49292 -91.13180 25055 ft 189 kts 302°
2026-05-05 15:47 30.50025 -91.14450 25248 ft 190 kts 302°
2026-05-05 15:48 30.50758 -91.15718 25487 ft 189 kts 301°
2026-05-05 15:48 30.51488 -91.16985 25687 ft 189 kts 301°
2026-05-05 15:48 30.52222 -91.18258 25879 ft 190 kts 301°
2026-05-05 15:48 30.52959 -91.19536 26075 ft 191 kts 301°
2026-05-05 15:49 30.53699 -91.20819 26273 ft 192 kts 301°
2026-05-05 15:49 30.54442 -91.22107 26464 ft 193 kts 301°
2026-05-05 15:49 30.55188 -91.23402 26655 ft 193 kts 301°
2026-05-05 15:49 30.55936 -91.24701 26847 ft 194 kts 301°
2026-05-05 15:50 30.56687 -91.26005 27029 ft 195 kts 301°
2026-05-05 15:50 30.57441 -91.27315 27211 ft 196 kts 301°
2026-05-05 15:50 30.58198 -91.28630 27389 ft 196 kts 301°
2026-05-05 15:50 30.58957 -91.29949 27563 ft 197 kts 301°
2026-05-05 15:51 30.59719 -91.31275 27738 ft 198 kts 301°
2026-05-05 15:51 30.60484 -91.32606 27907 ft 198 kts 301°
2026-05-05 15:51 30.61253 -91.33944 28016 ft 201 kts 301°
2026-05-05 15:51 30.62042 -91.35317 28018 ft 208 kts 302°
2026-05-05 15:52 30.62855 -91.36730 28023 ft 213 kts 302°
2026-05-05 15:52 30.63686 -91.38177 28025 ft 217 kts 302°
2026-05-05 15:52 30.64531 -91.39649 28032 ft 221 kts 302°
2026-05-05 15:52 30.65390 -91.41144 28044 ft 224 kts 302°
2026-05-05 15:53 30.66258 -91.42658 28027 ft 226 kts 302°
2026-05-05 15:53 30.67135 -91.44188 28034 ft 228 kts 302°
2026-05-05 15:53 30.68008 -91.45736 28035 ft 230 kts 301°
2026-05-05 15:53 30.68878 -91.47301 28028 ft 231 kts 301°
2026-05-05 15:54 30.69756 -91.48872 28032 ft 232 kts 301°
2026-05-05 15:54 30.70639 -91.50447 28030 ft 233 kts 301°
2026-05-05 15:54 30.71525 -91.52030 28028 ft 234 kts 301°
2026-05-05 15:54 30.72412 -91.53617 28032 ft 234 kts 301°
2026-05-05 15:55 30.73300 -91.55206 28028 ft 234 kts 301°
2026-05-05 15:55 30.74187 -91.56794 28028 ft 235 kts 301°
2026-05-05 15:55 30.75076 -91.58385 28026 ft 235 kts 301°
2026-05-05 15:55 30.75965 -91.59977 28024 ft 235 kts 301°
2026-05-05 15:56 30.76853 -91.61569 28026 ft 235 kts 301°
2026-05-05 15:56 30.77741 -91.63161 28022 ft 235 kts 301°
2026-05-05 15:56 30.78629 -91.64754 28019 ft 235 kts 301°
2026-05-05 15:56 30.79517 -91.66346 28018 ft 235 kts 301°
2026-05-05 15:57 30.80405 -91.67941 28012 ft 235 kts 301°
2026-05-05 15:57 30.81295 -91.69539 28008 ft 235 kts 301°
2026-05-05 15:57 30.82185 -91.71137 28006 ft 235 kts 301°
2026-05-05 15:57 30.83074 -91.72735 28003 ft 235 kts 301°
2026-05-05 15:58 30.83963 -91.74334 28000 ft 235 kts 301°
2026-05-05 15:58 30.84852 -91.75934 27998 ft 236 kts 301°
2026-05-05 15:58 30.85742 -91.77535 27994 ft 235 kts 301°
2026-05-05 15:58 30.86631 -91.79135 27992 ft 235 kts 301°
2026-05-05 15:59 30.87520 -91.80736 27989 ft 235 kts 301°
2026-05-05 15:59 30.88406 -91.82332 27988 ft 235 kts 301°
2026-05-05 15:59 30.89293 -91.83931 27982 ft 235 kts 301°
2026-05-05 15:59 30.90179 -91.85529 27983 ft 235 kts 301°
2026-05-05 16:00 30.91065 -91.87125 27988 ft 234 kts 301°
2026-05-05 16:00 30.91949 -91.88721 27986 ft 234 kts 301°
2026-05-05 16:00 30.92832 -91.90316 27985 ft 234 kts 301°
2026-05-05 16:00 30.93714 -91.91910 27986 ft 234 kts 301°
2026-05-05 16:01 30.94597 -91.93504 28012 ft 234 kts 301°
2026-05-05 16:01 30.95481 -91.95101 28004 ft 235 kts 301°
2026-05-05 16:01 30.96364 -91.96698 28004 ft 234 kts 301°
2026-05-05 16:01 30.97233 -91.98270 28004 ft 234 kts 301°
2026-05-05 16:02 30.98114 -91.99864 28003 ft 234 kts 301°
2026-05-05 16:02 30.98993 -92.01455 28003 ft 234 kts 301°
2026-05-05 16:02 30.99872 -92.03047 28003 ft 233 kts 301°
2026-05-05 16:02 31.00750 -92.04637 28003 ft 233 kts 301°
2026-05-05 16:03 31.01628 -92.06227 28001 ft 233 kts 301°
2026-05-05 16:03 31.02504 -92.07818 28000 ft 233 kts 301°
2026-05-05 16:03 31.03380 -92.09407 27999 ft 233 kts 301°
2026-05-05 16:03 31.04256 -92.10997 27998 ft 233 kts 301°
2026-05-05 16:04 31.05133 -92.12589 27997 ft 233 kts 301°
2026-05-05 16:04 31.06010 -92.14180 27994 ft 233 kts 301°
2026-05-05 16:04 31.06885 -92.15770 27994 ft 233 kts 301°
2026-05-05 16:04 31.07760 -92.17361 27995 ft 233 kts 301°
2026-05-05 16:05 31.08634 -92.18951 27994 ft 233 kts 301°
2026-05-05 16:05 31.09509 -92.20543 27991 ft 233 kts 301°
2026-05-05 16:05 31.10383 -92.22134 27990 ft 233 kts 301°
2026-05-05 16:05 31.11258 -92.23725 27987 ft 233 kts 301°
2026-05-05 16:06 31.12133 -92.25319 27986 ft 233 kts 301°
2026-05-05 16:06 31.13006 -92.26911 27985 ft 233 kts 300°
2026-05-05 16:06 31.13880 -92.28503 27982 ft 233 kts 300°
2026-05-05 16:06 31.14751 -92.30093 27984 ft 232 kts 300°
2026-05-05 16:07 31.15624 -92.31685 27981 ft 233 kts 300°
2026-05-05 16:07 31.16495 -92.33274 27956 ft 233 kts 300°
2026-05-05 16:07 31.17366 -92.34866 27954 ft 232 kts 300°
2026-05-05 16:07 31.18236 -92.36455 27957 ft 232 kts 300°
2026-05-05 16:08 31.19106 -92.38046 27958 ft 232 kts 300°
2026-05-05 16:08 31.19978 -92.39639 27957 ft 232 kts 300°
2026-05-05 16:08 31.20847 -92.41228 27958 ft 232 kts 300°
2026-05-05 16:08 31.21718 -92.42821 27957 ft 233 kts 300°
2026-05-05 16:09 31.22587 -92.44415 27973 ft 233 kts 300°
2026-05-05 16:09 31.23459 -92.46010 27973 ft 233 kts 300°
2026-05-05 16:09 31.24331 -92.47606 27972 ft 233 kts 300°
2026-05-05 16:09 31.25199 -92.49205 27969 ft 233 kts 299°
2026-05-05 16:10 31.25965 -92.50862 27960 ft 232 kts 295°
2026-05-05 16:10 31.26615 -92.52584 27959 ft 231 kts 293°
2026-05-05 16:10 31.27258 -92.54309 27958 ft 231 kts 293°
2026-05-05 16:10 31.27903 -92.56029 27957 ft 231 kts 293°
2026-05-05 16:11 31.28546 -92.57750 27958 ft 231 kts 293°
2026-05-05 16:11 31.30473 -92.62921 27958 ft 231 kts 293°
2026-05-05 16:12 31.31115 -92.64644 27958 ft 231 kts 293°
2026-05-05 16:12 31.32398 -92.68093 27961 ft 231 kts 293°
2026-05-05 16:13 31.34317 -92.73255 27958 ft 231 kts 293°
2026-05-05 16:13 31.34956 -92.74977 27957 ft 230 kts 293°
2026-05-05 16:13 31.35597 -92.76705 27957 ft 233 kts 293°
2026-05-05 16:14 31.36890 -92.80193 27960 ft 237 kts 293°
2026-05-05 16:14 31.38218 -92.83776 27959 ft 240 kts 293°
2026-05-05 16:15 31.39540 -92.87347 27961 ft 241 kts 293°
2026-05-05 16:15 31.40877 -92.90964 27949 ft 243 kts 293°
2026-05-05 16:16 31.42218 -92.94598 27951 ft 244 kts 293°
2026-05-05 16:16 31.43564 -92.98244 27952 ft 244 kts 293°
2026-05-05 16:17 31.44907 -93.01895 27947 ft 244 kts 293°
2026-05-05 16:17 31.45580 -93.03722 27946 ft 244 kts 293°
2026-05-05 16:18 31.46928 -93.07377 27935 ft 245 kts 292°
2026-05-05 16:18 31.47599 -93.09210 27934 ft 245 kts 292°
2026-05-05 16:18 31.48955 -93.12903 27949 ft 246 kts 292°
2026-05-05 16:19 31.49622 -93.14716 27946 ft 246 kts 292°
2026-05-05 16:19 31.50296 -93.16554 27942 ft 245 kts 292°
2026-05-05 16:19 31.51642 -93.20228 27941 ft 245 kts 292°
2026-05-05 16:20 31.52986 -93.23900 27936 ft 245 kts 292°
2026-05-05 16:20 31.54329 -93.27570 27933 ft 245 kts 292°
2026-05-05 16:21 31.55671 -93.31243 27931 ft 245 kts 292°
2026-05-05 16:22 31.57683 -93.36758 27927 ft 245 kts 292°
2026-05-05 16:22 31.59026 -93.40444 27926 ft 246 kts 292°
2026-05-05 16:23 31.60371 -93.44138 27928 ft 246 kts 292°
2026-05-05 16:23 31.61042 -93.45985 27926 ft 246 kts 292°
2026-05-05 16:23 31.62382 -93.49671 27926 ft 245 kts 292°
2026-05-05 16:24 31.63050 -93.51512 27922 ft 245 kts 292°
2026-05-05 16:24 31.63709 -93.53326 27921 ft 245 kts 292°
2026-05-05 16:24 31.65051 -93.57029 27920 ft 245 kts 292°
2026-05-05 16:25 31.65709 -93.58843 27921 ft 245 kts 292°
2026-05-05 16:25 31.67040 -93.62520 27924 ft 245 kts 292°
2026-05-05 16:25 31.67708 -93.64366 27923 ft 246 kts 292°
2026-05-05 16:26 31.69046 -93.68060 27920 ft 246 kts 292°
2026-05-05 16:26 31.70382 -93.71754 27918 ft 246 kts 292°
2026-05-05 16:27 31.71050 -93.73605 27920 ft 246 kts 292°
2026-05-05 16:27 31.71718 -93.75451 27921 ft 245 kts 292°
2026-05-05 16:27 31.72384 -93.77295 27921 ft 245 kts 292°
2026-05-05 16:27 31.73051 -93.79143 27920 ft 245 kts 292°
2026-05-05 16:28 31.73714 -93.80987 27918 ft 245 kts 291°
2026-05-05 16:28 31.74279 -93.82871 27948 ft 245 kts 287°
2026-05-05 16:28 31.74703 -93.84807 27929 ft 245 kts 284°
2026-05-05 16:28 31.75091 -93.86757 27929 ft 245 kts 284°
2026-05-05 16:29 31.75487 -93.88700 27928 ft 245 kts 284°
2026-05-05 16:29 31.75880 -93.90644 27927 ft 244 kts 284°
2026-05-05 16:29 31.76271 -93.92586 27925 ft 245 kts 284°
2026-05-05 16:29 31.76663 -93.94532 27926 ft 245 kts 284°
2026-05-05 16:30 31.77054 -93.96478 27925 ft 245 kts 284°
2026-05-05 16:30 31.77445 -93.98422 27924 ft 244 kts 284°
2026-05-05 16:30 31.77835 -94.00368 27923 ft 245 kts 284°
2026-05-05 16:30 31.78226 -94.02313 27922 ft 245 kts 284°
2026-05-05 16:31 31.78616 -94.04257 27921 ft 244 kts 284°
2026-05-05 16:31 31.79005 -94.06202 27914 ft 244 kts 284°
2026-05-05 16:31 31.79262 -94.07489 27915 ft 244 kts 284°
2026-05-05 16:31 31.79651 -94.09432 27915 ft 244 kts 284°
2026-05-05 16:32 31.80040 -94.11377 27914 ft 244 kts 284°
2026-05-05 16:32 31.80427 -94.13317 27914 ft 244 kts 284°
2026-05-05 16:32 31.80814 -94.15260 27916 ft 244 kts 284°
2026-05-05 16:32 31.81201 -94.17199 27914 ft 244 kts 284°
2026-05-05 16:33 31.81588 -94.19139 27915 ft 244 kts 284°
2026-05-05 16:33 31.81974 -94.21077 27917 ft 244 kts 283°
2026-05-05 16:33 31.82359 -94.23018 27914 ft 244 kts 283°
2026-05-05 16:33 31.82745 -94.24962 27914 ft 244 kts 283°
2026-05-05 16:34 31.83131 -94.26907 27915 ft 244 kts 283°
2026-05-05 16:34 31.83518 -94.28852 27912 ft 244 kts 283°
2026-05-05 16:34 31.83903 -94.30800 27910 ft 245 kts 283°
2026-05-05 16:34 31.84288 -94.32747 27913 ft 245 kts 283°
2026-05-05 16:35 31.84674 -94.34695 27913 ft 244 kts 283°
2026-05-05 16:35 31.85059 -94.36642 27913 ft 245 kts 283°
2026-05-05 16:35 31.85444 -94.38591 27911 ft 245 kts 283°
2026-05-05 16:35 31.85829 -94.40539 27913 ft 245 kts 283°
2026-05-05 16:36 31.86213 -94.42490 27911 ft 245 kts 283°
2026-05-05 16:36 31.86597 -94.44441 27912 ft 245 kts 283°
2026-05-05 16:36 31.86982 -94.46395 27911 ft 245 kts 283°
2026-05-05 16:36 31.87366 -94.48348 27913 ft 245 kts 283°
2026-05-05 16:37 31.87749 -94.50299 27911 ft 245 kts 283°
2026-05-05 16:37 31.88132 -94.52252 27912 ft 245 kts 283°
2026-05-05 16:37 31.88515 -94.54203 27900 ft 245 kts 283°
2026-05-05 16:37 31.88897 -94.56152 27901 ft 245 kts 283°
2026-05-05 16:38 31.89279 -94.58103 27899 ft 245 kts 283°
2026-05-05 16:38 31.89660 -94.60057 27897 ft 245 kts 283°
2026-05-05 16:38 31.90042 -94.62013 27898 ft 245 kts 283°
2026-05-05 16:38 31.90426 -94.63973 27899 ft 246 kts 283°
2026-05-05 16:39 31.90809 -94.65934 27899 ft 246 kts 283°
2026-05-05 16:39 31.91192 -94.67898 27898 ft 246 kts 283°
2026-05-05 16:39 31.91574 -94.69864 27899 ft 246 kts 283°
2026-05-05 16:39 31.91957 -94.71829 27897 ft 247 kts 283°
2026-05-05 16:40 31.92340 -94.73801 27892 ft 247 kts 283°
2026-05-05 16:40 31.92723 -94.75770 27893 ft 247 kts 283°
2026-05-05 16:40 31.93105 -94.77740 27893 ft 247 kts 283°
2026-05-05 16:40 31.93483 -94.79685 27893 ft 247 kts 283°
2026-05-05 16:41 31.93870 -94.81684 27891 ft 247 kts 283°
2026-05-05 16:41 31.94252 -94.83658 27892 ft 247 kts 283°
2026-05-05 16:41 31.94633 -94.85634 27894 ft 248 kts 283°
2026-05-05 16:41 31.95015 -94.87608 27894 ft 248 kts 283°
2026-05-05 16:42 31.95398 -94.89589 27891 ft 248 kts 283°
2026-05-05 16:42 31.95774 -94.91539 27892 ft 248 kts 283°
2026-05-05 16:42 31.96155 -94.93518 27891 ft 248 kts 283°
2026-05-05 16:42 31.96537 -94.95499 27880 ft 248 kts 283°
2026-05-05 16:43 31.96917 -94.97472 27894 ft 247 kts 283°
2026-05-05 16:43 31.97297 -94.99448 27891 ft 247 kts 283°
2026-05-05 16:43 31.97676 -95.01422 27901 ft 248 kts 282°
2026-05-05 16:43 31.98055 -95.03401 27891 ft 248 kts 282°
2026-05-05 16:44 31.98435 -95.05381 27889 ft 247 kts 282°
2026-05-05 16:44 31.98813 -95.07356 27888 ft 247 kts 282°
2026-05-05 16:44 31.99191 -95.09333 27885 ft 247 kts 282°
2026-05-05 16:44 31.99570 -95.11310 27884 ft 247 kts 282°
2026-05-05 16:45 31.99947 -95.13286 27883 ft 247 kts 282°
2026-05-05 16:45 32.00324 -95.15261 27878 ft 247 kts 282°
2026-05-05 16:45 32.00700 -95.17235 27877 ft 247 kts 282°
2026-05-05 16:45 32.01076 -95.19206 27877 ft 247 kts 282°
2026-05-05 16:46 32.01451 -95.21180 27872 ft 247 kts 282°
2026-05-05 16:46 32.01832 -95.23173 27649 ft 253 kts 282°
2026-05-05 16:46 32.02221 -95.25212 27323 ft 256 kts 282°
2026-05-05 16:46 32.02610 -95.27264 26986 ft 257 kts 282°
2026-05-05 16:47 32.03002 -95.29323 26647 ft 258 kts 282°
2026-05-05 16:47 32.03392 -95.31388 26306 ft 259 kts 282°
2026-05-05 16:47 32.03785 -95.33464 25950 ft 260 kts 282°
2026-05-05 16:47 32.04181 -95.35553 25615 ft 262 kts 282°
2026-05-05 16:48 32.04576 -95.37648 25271 ft 263 kts 282°
2026-05-05 16:48 32.04975 -95.39751 24933 ft 264 kts 282°
2026-05-05 16:48 32.05374 -95.41865 24576 ft 264 kts 282°
2026-05-05 16:48 32.05772 -95.43984 24231 ft 266 kts 282°
2026-05-05 16:49 32.06174 -95.46113 23880 ft 267 kts 282°
2026-05-05 16:49 32.06575 -95.48239 23527 ft 265 kts 282°
2026-05-05 16:49 32.07007 -95.50345 23152 ft 263 kts 285°
2026-05-05 16:49 32.07638 -95.52361 22796 ft 262 kts 290°
2026-05-05 16:50 32.08461 -95.54276 22451 ft 262 kts 296°
2026-05-05 16:50 32.09474 -95.56072 22102 ft 264 kts 301°
2026-05-05 16:50 32.10613 -95.57776 21749 ft 264 kts 302°
2026-05-05 16:50 32.11735 -95.59484 21402 ft 263 kts 302°
2026-05-05 16:51 32.12858 -95.61192 21054 ft 263 kts 302°
2026-05-05 16:51 32.13987 -95.62894 20709 ft 264 kts 302°
2026-05-05 16:51 32.15119 -95.64601 20364 ft 264 kts 302°
2026-05-05 16:51 32.16252 -95.66313 20010 ft 265 kts 302°
2026-05-05 16:52 32.17383 -95.68030 19653 ft 266 kts 302°
2026-05-05 16:52 32.18520 -95.69753 19307 ft 266 kts 302°
2026-05-05 16:52 32.19661 -95.71476 18956 ft 266 kts 301°
2026-05-05 16:52 32.20801 -95.73198 18602 ft 266 kts 301°
2026-05-05 16:53 32.21935 -95.74921 18271 ft 266 kts 301°
2026-05-05 16:53 32.23073 -95.76651 17881 ft 267 kts 301°
2026-05-05 16:53 32.24213 -95.78380 17517 ft 267 kts 301°
2026-05-05 16:53 32.25349 -95.80105 17160 ft 265 kts 301°
2026-05-05 16:54 32.26395 -95.81881 16812 ft 263 kts 299°
2026-05-05 16:54 32.27432 -95.83661 16460 ft 262 kts 300°
2026-05-05 16:54 32.28459 -95.85404 16117 ft 262 kts 300°
2026-05-05 16:54 32.29494 -95.87169 15774 ft 261 kts 300°
2026-05-05 16:55 32.30524 -95.88928 15431 ft 260 kts 300°
2026-05-05 16:55 32.31550 -95.90684 15088 ft 260 kts 301°
2026-05-05 16:55 32.32577 -95.92439 14745 ft 259 kts 301°
2026-05-05 16:55 32.33604 -95.94192 14402 ft 259 kts 301°
2026-05-05 16:56 32.34629 -95.95945 14058 ft 259 kts 302°
2026-05-05 16:56 32.35652 -95.97697 13717 ft 258 kts 302°
2026-05-05 16:56 32.36670 -95.99443 13355 ft 257 kts 302°
2026-05-05 16:56 32.37681 -96.01179 13014 ft 256 kts 302°
2026-05-05 16:57 32.38671 -96.02884 12872 ft 249 kts 302°
2026-05-05 16:57 32.39653 -96.04575 12571 ft 250 kts 302°
2026-05-05 16:57 32.40644 -96.06271 12248 ft 251 kts 302°
2026-05-05 16:57 32.41638 -96.07976 11917 ft 252 kts 302°
2026-05-05 16:58 32.42640 -96.09691 11578 ft 254 kts 301°
2026-05-05 16:58 32.43643 -96.11423 11244 ft 256 kts 301°
2026-05-05 16:58 32.44653 -96.13165 10906 ft 257 kts 301°
2026-05-05 16:58 32.45669 -96.14914 10566 ft 258 kts 301°
2026-05-05 16:59 32.46689 -96.16669 10225 ft 259 kts 301°
2026-05-05 16:59 32.47710 -96.18427 9883 ft 260 kts 301°
2026-05-05 16:59 32.48733 -96.20193 9527 ft 260 kts 301°
2026-05-05 16:59 32.49755 -96.21957 9172 ft 259 kts 301°
2026-05-05 17:00 32.50775 -96.23714 8827 ft 258 kts 301°
2026-05-05 17:00 32.51788 -96.25462 8489 ft 257 kts 301°
2026-05-05 17:00 32.52795 -96.27210 8150 ft 256 kts 301°
2026-05-05 17:00 32.53803 -96.28952 7812 ft 256 kts 301°
2026-05-05 17:01 32.54810 -96.30693 7476 ft 256 kts 301°
2026-05-05 17:01 32.55817 -96.32434 7139 ft 256 kts 301°
2026-05-05 17:01 32.56891 -96.34102 7034 ft 253 kts 312°
2026-05-05 17:01 32.58273 -96.35358 7036 ft 247 kts 319°
2026-05-05 17:02 32.59633 -96.36583 7029 ft 243 kts 317°
2026-05-05 17:02 32.60825 -96.37952 7016 ft 236 kts 306°
2026-05-05 17:02 32.61858 -96.39440 7013 ft 232 kts 305°
2026-05-05 17:02 32.62921 -96.40881 7014 ft 232 kts 308°
2026-05-05 17:03 32.64027 -96.42275 7015 ft 231 kts 309°
2026-05-05 17:03 32.65123 -96.43670 7018 ft 231 kts 308°
2026-05-05 17:03 32.66196 -96.45049 7017 ft 230 kts 308°
2026-05-05 17:03 32.67283 -96.46447 7020 ft 230 kts 308°
2026-05-05 17:04 32.68371 -96.47843 7019 ft 230 kts 308°
2026-05-05 17:04 32.69456 -96.49239 7019 ft 230 kts 308°
2026-05-05 17:04 32.70538 -96.50634 7018 ft 230 kts 309°
2026-05-05 17:04 32.71623 -96.52029 7019 ft 230 kts 308°
2026-05-05 17:05 32.72708 -96.53424 7035 ft 230 kts 308°
2026-05-05 17:05 32.73792 -96.54818 7033 ft 230 kts 308°
2026-05-05 17:05 32.74874 -96.56216 7033 ft 230 kts 308°
2026-05-05 17:05 32.75959 -96.57613 6997 ft 230 kts 308°
2026-05-05 17:06 32.77043 -96.59011 6990 ft 230 kts 308°
2026-05-05 17:06 32.78127 -96.60409 7000 ft 230 kts 308°
2026-05-05 17:06 32.79213 -96.61811 7001 ft 230 kts 308°
2026-05-05 17:06 32.80300 -96.63213 7001 ft 231 kts 308°
2026-05-05 17:07 32.81387 -96.64615 6968 ft 232 kts 308°
2026-05-05 17:07 32.82496 -96.66047 6743 ft 239 kts 309°
2026-05-05 17:07 32.83642 -96.67519 6443 ft 246 kts 309°
2026-05-05 17:07 32.84814 -96.69029 6116 ft 250 kts 309°
2026-05-05 17:08 32.86001 -96.70559 5768 ft 252 kts 309°
2026-05-05 17:08 32.87185 -96.72090 5433 ft 250 kts 309°
2026-05-05 17:08 32.88348 -96.73604 5103 ft 246 kts 308°
2026-05-05 17:08 32.89496 -96.75101 4781 ft 244 kts 308°
2026-05-05 17:09 32.90624 -96.76556 4471 ft 241 kts 308°
2026-05-05 17:09 32.91753 -96.78025 4140 ft 240 kts 307°
2026-05-05 17:09 32.92882 -96.79513 3829 ft 239 kts 307°
2026-05-05 17:09 32.94007 -96.80938 3512 ft 239 kts 306°
2026-05-05 17:10 32.94950 -96.82528 3197 ft 233 kts 292°
2026-05-05 17:10 32.95569 -96.84282 3022 ft 225 kts 282°
2026-05-05 17:10 32.95869 -96.86050 3015 ft 213 kts 274°
2026-05-05 17:10 32.95891 -96.87781 2919 ft 209 kts 266°
2026-05-05 17:11 32.95836 -96.89527 2691 ft 213 kts 266°
2026-05-05 17:11 32.95521 -96.91244 2401 ft 215 kts 241°
2026-05-05 17:11 32.94466 -96.92480 2184 ft 217 kts 211°
2026-05-05 17:11 32.93044 -96.92895 1990 ft 210 kts 182°
2026-05-05 17:12 32.91674 -96.92412 1980 ft 204 kts 155°
2026-05-05 17:12 32.90576 -96.91370 1961 ft 202 kts 141°
2026-05-05 17:12 32.89656 -96.90252 1668 ft 155 kts 140°
2026-05-05 17:12 32.89044 -96.89492 1482 ft 113 kts 146°
2026-05-05 17:13 32.88500 -96.88890 1279 ft 104 kts 143°
2026-05-05 17:13 32.88001 -96.88262 1136 ft 103 kts 147°
2026-05-05 17:13 32.87475 -96.87725 1007 ft 98 kts 149°
2026-05-05 17:13 32.87009 -96.87125 880 ft 98 kts 141°
2026-05-05 17:14 32.86501 -96.86608 734 ft 98 kts 148°
2026-05-05 17:14 32.86022 -96.85999 626 ft 102 kts 145°
2026-05-05 17:14 32.85492 -96.85411 509 ft 105 kts 146°
2026-05-05 17:14 32.85019 -96.84852 486 ft 82 kts 144°
2026-05-05 17:15 32.84684 -96.84475 482 ft 38 kts 135°
2026-05-05 17:15 32.84634 -96.84391 485 ft 10 kts 320°
2026-05-05 17:15 32.84688 -96.84463 482 ft 13 kts 313°
2026-05-05 17:15 32.84752 -96.84544 479 ft 12 kts 327°
2026-05-05 17:16 32.84833 -96.84498 476 ft 16 kts 20°
2026-05-05 17:16 32.84927 -96.84573 479 ft 18 kts 315°
2026-05-05 17:16 32.85021 -96.84680 479 ft 20 kts 315°
2026-05-05 17:16 32.85124 -96.84797 479 ft 21 kts 314°
2026-05-05 17:17 32.85234 -96.84924 479 ft 23 kts 319°
2026-05-05 17:17 32.85352 -96.85060 479 ft 24 kts 314°
2026-05-05 17:17 32.85449 -96.85111 479 ft 15 kts 41°
2026-05-05 17:17 32.85488 -96.85044 475 ft 15 kts 38°
2026-05-05 17:18 32.85520 -96.85039 478 ft 0 kts 351°